User: anonymous   Login
Location: *
(58.7167°N, 26.1833°E)
Time: 00:25:47
(UTC+00:00)
Language:

Iridium 2 - Orbit

View from above orbital plane
View from above orbital plane
View from above satellite
View from above satellite

Ground track
Ground track

The orbit data is extracted from the following two-line orbital elements,

1 25527U 98066A   19289.44571766  .00000972  00000-0  45622-4 0  9990
2 25527  85.5292 249.0082 0008319 181.4962 178.6256 15.18212737146969
Epoch (UTC): 16 October 2019 10:41:50
Eccentricity: 0.0008319
inclination: 85.5292°
perigee height: 505 km
apogee height: 517 km
right ascension of ascending node: 249.0082°
argument of perigee: 181.4962°
revolutions per day: 15.18212737
mean anomaly at epoch: 178.6256°
orbit number at epoch: 14696

The dashed part of the orbit path shows where the satellite is in the earth's shadow,  

DLR